When you browse on this site, cookies collect data to enhance your experience and personalize the content and advertising you see.
Visit our Privacy Policy to learn more. By continuing to use the site, you agree to this use of cookies and data.
EN

Hourly Weather Semenivka

Today, 9 August, Sunday

Time Temperature Precipitation Wind Pressure Humidity
00:00 +17°C° 0 mm 2 mps 751 mmHg 90%
01:00 +17°C° 0 mm 2 mps 751 mmHg 90%
02:00 +17°C° 0 mm 2 mps 751 mmHg 90%
03:00 +16°C° 0 mm 2 mps 750 mmHg 90%
04:00 +16°C° 0 mm 2 mps 750 mmHg 90%
05:00 +16°C° 0 mm 2 mps 750 mmHg 90%
06:00 +18°C° 0 mm 2 mps 750 mmHg 85%
07:00 +19°C° 0 mm 2 mps 750 mmHg 79%
08:00 +21°C° 0 mm 2 mps 750 mmHg 74%
09:00 +23°C° 0 mm 2 mps 750 mmHg 70%
10:00 +24°C° 0 mm 2 mps 750 mmHg 66%
11:00 +26°C° 0 mm 1 mps 750 mmHg 62%
12:00 +26°C° 0.5 mm 2 mps 749 mmHg 61%
13:00 +26°C° 0.5 mm 2 mps 749 mmHg 61%
14:00 +26°C° 0.5 mm 2 mps 749 mmHg 60%
15:00 +26°C° 0.4 mm 2 mps 749 mmHg 61%
16:00 +26°C° 0.4 mm 2 mps 748 mmHg 62%
17:00 +26°C° 0.4 mm 2 mps 748 mmHg 63%
18:00 +24°C° 0.1 mm 2 mps 748 mmHg 69%
19:00 +23°C° 0.1 mm 1 mps 748 mmHg 75%
20:00 +21°C° 0.1 mm 1 mps 748 mmHg 81%
21:00 +21°C° 0 mm 1 mps 748 mmHg 83%
22:00 +20°C° 0 mm 1 mps 748 mmHg 84%
23:00 +20°C° 0 mm 1 mps 748 mmHg 86%

Tomorrow, 10 August, Monday

Time Temperature Precipitation Wind Pressure Humidity
00:00 +19°C° 0 mm 1 mps 748 mmHg 86%
01:00 +19°C° 0 mm 1 mps 748 mmHg 87%
02:00 +19°C° 0 mm 1 mps 748 mmHg 87%
03:00 +19°C° 0 mm 1 mps 748 mmHg 88%
04:00 +18°C° 0 mm 1 mps 748 mmHg 89%
05:00 +18°C° 0 mm 1 mps 748 mmHg 90%
06:00 +20°C° 0 mm 1 mps 748 mmHg 85%
07:00 +20°C° 0 mm 2 mps 748 mmHg 80%
08:00 +23°C° 0 mm 2 mps 748 mmHg 75%
09:00 +24°C° 0.3 mm 2 mps 748 mmHg 71%
10:00 +25°C° 0.3 mm 2 mps 748 mmHg 67%
11:00 +26°C° 0.3 mm 2 mps 748 mmHg 63%
12:00 +26°C° 0.2 mm 2 mps 748 mmHg 61%
13:00 +27°C° 0.2 mm 2 mps 748 mmHg 59%
14:00 +27°C° 0.2 mm 2 mps 748 mmHg 57%
15:00 +27°C° 0 mm 2 mps 748 mmHg 59%
16:00 +27°C° 0 mm 2 mps 748 mmHg 61%
17:00 +26°C° 0 mm 2 mps 748 mmHg 63%
18:00 +25°C° 0 mm 2 mps 748 mmHg 67%
19:00 +23°C° 0 mm 2 mps 747 mmHg 71%
20:00 +20°C° 0 mm 2 mps 747 mmHg 75%
21:00 +20°C° 0 mm 2 mps 747 mmHg 77%
22:00 +20°C° 0 mm 1 mps 747 mmHg 79%
23:00 +19°C° 0 mm 1 mps 748 mmHg 81%

Day after tomorrow, 11 August, Tuesday

Time Temperature Precipitation Wind Pressure Humidity
00:00 +19°C° 0 mm 1 mps 747 mmHg 82%
01:00 +19°C° 0 mm 1 mps 747 mmHg 83%
02:00 +18°C° 0 mm 1 mps 747 mmHg 84%
03:00 +18°C° 0 mm 1 mps 747 mmHg 85%
04:00 +18°C° 0 mm 1 mps 747 mmHg 85%
05:00 +18°C° 0 mm 1 mps 747 mmHg 86%
06:00 +20°C° 0.2 mm 1 mps 747 mmHg 82%
07:00 +21°C° 0.2 mm 1 mps 747 mmHg 78%
08:00 +23°C° 0.2 mm 2 mps 747 mmHg 74%
09:00 +24°C° 0 mm 2 mps 747 mmHg 70%
10:00 +26°C° 0 mm 2 mps 747 mmHg 65%
11:00 +27°C° 0 mm 3 mps 747 mmHg 61%
12:00 +27°C° 0.4 mm 3 mps 747 mmHg 60%
13:00 +27°C° 0.4 mm 4 mps 747 mmHg 60%
14:00 +27°C° 0.4 mm 4 mps 747 mmHg 60%
15:00 +26°C° 0.7 mm 4 mps 747 mmHg 64%
16:00 +26°C° 0.7 mm 4 mps 747 mmHg 68%
17:00 +25°C° 0.7 mm 4 mps 747 mmHg 72%
18:00 +22°C° 0.1 mm 4 mps 747 mmHg 76%
19:00 +20°C° 0.1 mm 4 mps 747 mmHg 81%
20:00 +18°C° 0.1 mm 4 mps 747 mmHg 85%
21:00 +17°C° 0 mm 4 mps 747 mmHg 85%
22:00 +15°C° 0 mm 4 mps 748 mmHg 86%
23:00 +14°C° 0 mm 5 mps 748 mmHg 86%

12 August, Wednesday

Time Temperature Precipitation Wind Pressure Humidity
00:00 +13°C° 0 mm 4 mps 748 mmHg 87%
01:00 +12°C° 0 mm 4 mps 748 mmHg 88%
02:00 +11°C° 0 mm 3 mps 748 mmHg 89%
03:00 +11°C° 0 mm 3 mps 748 mmHg 90%
04:00 +10°C° 0 mm 3 mps 748 mmHg 90%
05:00 +10°C° 0 mm 3 mps 748 mmHg 91%
06:00 +11°C° 0 mm 3 mps 748 mmHg 84%
07:00 +13°C° 0 mm 4 mps 749 mmHg 77%
08:00 +15°C° 0 mm 4 mps 749 mmHg 70%
09:00 +15°C° 0 mm 4 mps 749 mmHg 69%
10:00 +17°C° 0 mm 4 mps 749 mmHg 67%
11:00 +17°C° 0 mm 4 mps 749 mmHg 66%
12:00 +18°C° 0.1 mm 4 mps 749 mmHg 65%
13:00 +18°C° 0.1 mm 4 mps 749 mmHg 65%
14:00 +18°C° 0.1 mm 4 mps 749 mmHg 64%
15:00 +18°C° 0 mm 4 mps 749 mmHg 65%
16:00 +18°C° 0 mm 4 mps 749 mmHg 66%
17:00 +18°C° 0 mm 4 mps 749 mmHg 66%
18:00 +17°C° 0 mm 3 mps 749 mmHg 73%
19:00 +16°C° 0 mm 3 mps 749 mmHg 79%
20:00 +15°C° 0 mm 2 mps 749 mmHg 85%
21:00 +14°C° 0 mm 2 mps 749 mmHg 88%
22:00 +14°C° 0 mm 2 mps 749 mmHg 90%
23:00 +13°C° 0 mm 2 mps 749 mmHg 93%

13 August, Thursday

Time Temperature Precipitation Wind Pressure Humidity
00:00 +13°C° 0 mm 2 mps 749 mmHg 93%
01:00 +12°C° 0 mm 2 mps 749 mmHg 94%
02:00 +12°C° 0 mm 2 mps 749 mmHg 94%
03:00 +12°C° 0 mm 2 mps 749 mmHg 95%
04:00 +12°C° 0 mm 2 mps 749 mmHg 95%
05:00 +10°C° 0 mm 2 mps 749 mmHg 95%
06:00 +13°C° 0 mm 2 mps 749 mmHg 90%
07:00 +14°C° 0 mm 3 mps 749 mmHg 85%
08:00 +16°C° 0 mm 3 mps 749 mmHg 80%
09:00 +17°C° 0.1 mm 3 mps 749 mmHg 75%
10:00 +18°C° 0.1 mm 4 mps 749 mmHg 70%
11:00 +19°C° 0.1 mm 4 mps 749 mmHg 65%
12:00 +19°C° 0.1 mm 4 mps 749 mmHg 63%
13:00 +19°C° 0.1 mm 4 mps 748 mmHg 60%
14:00 +19°C° 0.1 mm 4 mps 748 mmHg 58%
15:00 +19°C° 0 mm 4 mps 748 mmHg 59%
16:00 +19°C° 0 mm 4 mps 748 mmHg 60%
17:00 +18°C° 0 mm 4 mps 748 mmHg 61%
18:00 +17°C° 0 mm 3 mps 748 mmHg 68%
19:00 +14°C° 0 mm 3 mps 748 mmHg 75%
20:00 +14°C° 0 mm 2 mps 748 mmHg 81%
21:00 +13°C° 0 mm 2 mps 749 mmHg 83%
22:00 +12°C° 0 mm 2 mps 749 mmHg 84%
23:00 +12°C° 0 mm 1 mps 749 mmHg 85%

14 August, Friday

Time Temperature Precipitation Wind Pressure Humidity
00:00 +12°C° 0 mm 1 mps 749 mmHg 82%
01:00 +13°C° 0 mm 1 mps 749 mmHg 79%
02:00 +13°C° 0 mm 1 mps 749 mmHg 76%
03:00 +13°C° 0 mm 1 mps 749 mmHg 78%
04:00 +13°C° 0 mm 2 mps 748 mmHg 80%
05:00 +12°C° 0 mm 2 mps 748 mmHg 82%
06:00 +14°C° 0 mm 2 mps 748 mmHg 79%
07:00 +14°C° 0 mm 3 mps 748 mmHg 76%
08:00 +17°C° 0 mm 3 mps 748 mmHg 73%
09:00 +18°C° 0.1 mm 3 mps 748 mmHg 70%
10:00 +19°C° 0.1 mm 4 mps 748 mmHg 66%
11:00 +21°C° 0.1 mm 4 mps 747 mmHg 63%
12:00 +21°C° 0.8 mm 4 mps 747 mmHg 64%
13:00 +21°C° 0.8 mm 5 mps 747 mmHg 65%
14:00 +21°C° 0.8 mm 5 mps 747 mmHg 66%
15:00 +21°C° 0.6 mm 5 mps 746 mmHg 69%
16:00 +20°C° 0.6 mm 4 mps 746 mmHg 72%
17:00 +20°C° 0.6 mm 4 mps 746 mmHg 75%
18:00 +19°C° 0.1 mm 3 mps 746 mmHg 79%
19:00 +17°C° 0.1 mm 3 mps 746 mmHg 84%
20:00 +16°C° 0.1 mm 2 mps 746 mmHg 89%
21:00 +15°C° 0 mm 2 mps 746 mmHg 90%
22:00 +14°C° 0 mm 2 mps 746 mmHg 92%
23:00 +14°C° 0 mm 2 mps 747 mmHg 93%
Show more